User: anonymous   Login
Location: Unspecified
(0.0000°N, 0.0000°E)
Time: 16:06:50
(UTC+00:00)
Language:

APRIZESAT 3 - Orbit

View from above orbital plane
View from above orbital plane
View from above satellite
View from above satellite

Ground track
Ground track

The orbit data is extracted from the following two-line orbital elements,

1 35686U 09041F   17179.59376467 +.00000089 +00000-0 +16488-4 0  9992
2 35686 098.2762 179.6177 0072702 337.6140 022.1907 14.87079125428834
Epoch (UTC): 28 June 2017 14:15:01
Eccentricity: 0.0072702
inclination: 98.2762°
perigee height: 556 km
apogee height: 658 km
right ascension of ascending node: 179.6177°
argument of perigee: 337.6140°
revolutions per day: 14.87079125
mean anomaly at epoch: 22.1907°
orbit number at epoch: 42883

The dashed part of the orbit path shows where the satellite is in the earth's shadow,  

DLR